User: anonymous   Login
Location: Kervinic
(48.4279°N, 4.7373°W)
Time: 17:30:21
(UTC+00:00)
Language:

STARLINK-1143 - Orbit

View from above orbital plane
View from above orbital plane
View from above satellite
View from above satellite

Ground track
Ground track

The orbit data is extracted from the following two-line orbital elements,

1 45179U 20012B   20196.58334491 -.00018473  00000-0 -12514-2 0  9996
2 45179  52.9981 312.7621 0001213 105.4855 110.9359 15.05596370 23092
Epoch (UTC): 14 July 2020 14:00:01
Eccentricity: 0.0001213
inclination: 52.9981°
perigee height: 549 km
apogee height: 550 km
right ascension of ascending node: 312.7621°
argument of perigee: 105.4855°
revolutions per day: 15.05596370
mean anomaly at epoch: 110.9359°
orbit number at epoch: 2309

The dashed part of the orbit path shows where the satellite is in the earth's shadow,  

DLR